Location: M.A.R.S.Observatory
(35.4031°N, 81.5481°W)
Time: 04:28:10
(UTC-04:00)

Daily predictions for brighter satellites

Satellite Brightness Start Highest point End
(mag) Time Altitude Azimuth Time Altitude Azimuth Time Altitude Azimuth
USA 267 3.2 00:02:11 10° NE 00:07:57 66° E 00:07:57 66° E
SeaSat 1 4.3 00:13:54 22° NE 00:13:54 22° NE 00:17:30 10° N
Lacrosse 5 3.4 00:17:43 28° NE 00:17:43 28° NE 00:20:07 10° NE
NOSS 3-1 (C) 4.5 00:09:38 10° NNW 00:17:10 53° NE 00:18:59 46° E
Cosmos 1953 4.3 00:13:06 10° N 00:15:05 27° NNW 00:15:05 27° NNW
Cosmos 2251 Rocket 4.3 00:21:41 48° NNE 00:21:41 48° NNE 00:25:33 10° NNE
SME Rocket 4.4 00:22:22 45° NNE 00:22:22 45° NNE 00:25:23 10° N
Cosmos 2360 Rocket 4.0 00:18:21 10° N 00:22:29 20° ENE 00:22:52 20° ENE
Cosmos 1980 Rocket 3.0 00:18:25 10° NNW 00:22:51 44° WNW 00:22:51 44° WNW
Cosmos 2322 Rocket 2.7 00:29:33 10° NNW 00:34:12 55° NNE 00:34:12 55° NNE
Lacrosse 5 rocket 3.5 00:37:04 10° NNW 00:40:10 27° NNE 00:40:10 27° NNE
USA 229 DEB 4.2 00:36:42 10° NW 00:43:06 52° W 00:43:06 52° W
USA 229 4.2 00:36:48 10° NW 00:43:12 53° W 00:43:12 53° W
NOSS 3-1 (A) 4.2 00:42:56 10° NNW 00:50:38 64° ENE 00:51:52 58° E
Cosmos 1934 Rocket 4.3 00:47:39 10° NNW 00:53:14 61° WNW 00:53:14 61° WNW
CZ-2C R/B 3.3 00:48:57 10° NNE 00:53:10 53° N 00:53:10 53° N
ATLAS CENTAUR R/B 4.4 01:10:48 10° NW 01:10:49 10° NW 01:10:49 10° NW
SL-16 R/B 3.6 01:22:10 10° NW 01:25:26 30° WNW 01:25:26 30° WNW
Cosmos 2061 Rocket 4.5 01:24:19 10° N 01:29:44 54° NE 01:29:44 54° NE
Cosmos 2227 Rocket 4.3 01:41:02 17° E 01:41:02 17° E 01:43:19 10° ENE
SeaSat 1 4.3 01:53:41 23° NW 01:53:41 23° NW 01:55:42 10° NW
Cosmos 2322 4.5 01:47:23 10° NNW 01:51:19 46° NNW 01:51:19 46° NNW
Lacrosse 5 4.2 01:56:51 15° WNW 01:58:37 17° NNW 02:01:58 10° N
Cosmos 2219 3.8 02:04:29 54° N 02:04:29 54° N 02:08:50 10° NNE
Cosmos 1725 Rocket 4.3 01:59:26 10° N 02:05:28 58° ENE 02:05:28 58° ENE
Cosmos 2360 Rocket 3.4 02:01:18 10° NNW 02:04:36 33° NW 02:04:36 33° NW
COSMOS 2428 3.2 02:05:12 10° NNW 02:09:55 59° N 02:09:55 59° N
Cosmos 2173 Rocket 4.4 02:05:05 10° NNW 02:09:56 51° NW 02:09:56 51° NW
USA 234 3.4 02:21:19 44° ESE 02:23:29 68° NE 02:29:58 10° NW
ATLAS 3B CENTAUR R/B 4.3 01:59:52 10° WSW 02:26:18 63° S 02:35:26 10° ESE
Meteor 2-2 Rocket 4.5 02:29:05 10° N 02:34:13 65° NE 02:34:13 65° NE
Cosmos 1140 Rocket 4.0 02:42:01 57° NE 02:42:01 57° NE 02:46:16 10° NNE
ATLAS 2AS CENTAUR R/B 2.9 02:33:41 10° NNW 02:41:41 79° ENE 02:43:52 50° SE
Cosmos 2333 Rocket 2.4 02:37:33 10° NNW 02:43:13 63° ENE 02:43:19 63° ENE
Cosmos 2297 Rocket 2.6 02:45:42 55° E 02:45:42 55° E 02:50:45 10° NNE
NOSS 3-3 (A) 4.1 02:45:42 61° WNW 02:45:52 61° NW 02:52:22 10° NNE
NOSS 3-3 (C) 4.1 02:45:49 62° WNW 02:45:59 62° NW 02:52:29 10° NNE
Cosmos 2219 Rocket 2.3 02:44:20 10° NNW 02:49:22 71° NNW 02:49:22 71° NNW
Cosmos 2151 4.3 02:51:46 37° NNE 02:51:46 37° NNE 02:54:31 10° NNE
Cosmos 1980 4.2 02:45:39 10° NNW 02:51:14 55° ENE 02:52:08 50° E
Aureole 2 Rocket 4.4 02:51:46 10° N 02:54:38 35° NNE 02:54:38 35° NNE
Cosmos 1850 Rocket 4.5 02:56:14 52° E 02:56:14 52° E 03:00:50 10° NNE
VEP-3 4.3 02:33:03 10° W 03:02:22 27° SE 03:04:58 10° SE
Cosmos 1741 Rocket 4.3 03:02:50 61° E 03:02:50 61° E 03:07:51 10° NNE
SL-16 R/B 3.9 02:58:18 14° ESE 03:02:45 33° ENE 03:08:10 10° N
NPP 3.7 03:00:00 10° NNE 03:05:23 72° E 03:05:23 72° E
CZ-3B DEB 4.4 03:03:30 43° SSW 03:09:09 69° SE 03:23:37 10° NE
Cosmos 2237 Rocket 2.2 03:04:13 10° NNW 03:09:52 73° ENE 03:10:33 65° ESE
SL-16 R/B 3.8 03:06:21 10° N 03:11:21 31° ENE 03:16:18 10° ESE
Cosmos 1151 Rocket 3.8 03:07:57 10° N 03:11:08 48° N 03:11:08 48° N
Meteor 2-10 4.2 03:10:52 10° NNW 03:15:17 59° NW 03:15:17 59° NW
CBERS-1 3.9 03:15:10 10° NNE 03:20:19 90° WSW 03:20:19 90° WSW
Resurs 1-4 Rocket 2.9 03:17:28 10° NNE 03:22:31 43° E 03:23:39 38° SE
Cosmos 2227 Rocket 2.5 03:22:51 50° WNW 03:23:07 51° WNW 03:28:37 10° N
ARIANE 5 R/B 3.3 03:22:38 10° NNE 03:27:27 42° E 03:28:27 38° SE
Cosmos 2058 3.9 03:32:09 37° NW 03:32:09 37° NW 03:35:01 10° N
UNK 4.4 03:34:33 36° SE 03:36:00 50° ENE 03:40:29 10° N
COBE Rocket 3.9 03:34:30 10° NNE 03:39:08 66° E 03:39:38 60° SE
Tsikada Rocket 4.5 03:36:41 32° SSE 03:39:33 57° E 03:45:48 10° NNE
Cosmos 1707 Rocket 4.4 03:36:06 10° N 03:40:19 45° E 03:41:37 35° SE
CZ-2D R/B 2.2 03:38:52 10° NNE 03:44:05 69° ESE 03:45:23 49° SSE
OAO 3 Rocket 4.5 03:47:22 28° SE 03:47:22 28° SE 03:50:56 10° E
Cosmos 1072 Rocket 4.4 03:44:15 10° NNW 03:50:20 68° W 03:52:02 47° SSW
BREEZE-M R/B 4.3 03:49:03 39° SSW 03:51:31 55° SE 03:56:02 10° ENE
Cosmos 1666 Rocket 3.7 03:50:56 60° SSE 03:51:33 71° E 03:55:59 10° NNE
Cosmos 1513 Rocket 4.4 03:46:47 10° N 03:53:13 84° W 03:56:00 36° S
Cosmos 1891 Rocket 4.4 03:49:57 10° N 03:56:19 82° W 03:59:03 36° S
Cosmos 1455 2.4 03:52:53 10° NNW 03:56:14 59° NW 03:56:14 59° NW
SL-08 R/B 3.8 03:57:02 44° W 03:57:02 44° W 04:01:32 10° NNW
IRS-1C 4.4 03:53:49 10° N 03:58:58 50° WNW 03:59:59 44° WSW
GPS 2-04 Rocket1 4.1 04:01:30 28° SE 04:01:30 28° SE 04:03:41 10° ESE
Lacrosse 4 Rocket 1.2 04:02:51 71° W 04:03:07 74° WNW 04:07:19 10° NNE
Spot 4 Rocket 4.1 04:01:12 10° N 04:06:16 62° WNW 04:07:35 46° SW
USA 234 4.3 04:08:35 25° W 04:08:35 25° W 04:12:13 10° WNW
Cosmos 1805 Rocket 3.9 04:07:50 45° W 04:08:03 46° W 04:12:19 10° N
Cosmos 1626 4.1 04:09:45 18° NW 04:09:45 18° NW 04:11:38 10° NNW
Cosmos 468 Rocket 4.4 04:04:57 10° N 04:10:06 61° ENE 04:15:10 10° SSE
Cosmos 1464 Rocket 4.2 04:04:30 10° NNW 04:10:23 49° W 04:12:16 37° SW
Cosmos 2208 Rocket 4.1 04:07:15 10° NNW 04:12:19 55° WSW 04:13:46 41° SSW
ADEOS Rocket 3.8 04:09:09 10° N 04:16:31 57° WNW 04:20:34 29° SW
Cosmos 1241 Rocket 4.5 04:10:28 10° NW 04:16:46 60° WSW 04:22:27 12° S
DELTA 2 R/B (1) 4.0 04:15:05 21° W 04:18:46 60° N 04:24:15 10° ENE
IRS-1D 3.9 04:16:27 10° N 04:21:34 49° WNW 04:23:26 34° WSW
Cosmos 1869 3.3 04:20:13 10° NNW 04:24:12 63° W 04:25:11 46° SSW
Cosmos 2333 Rocket 4.1 04:23:50 10° WNW 04:25:16 13° W 04:25:16 13° W
Cosmos 1634 Rocket 4.4 04:23:29 10° N 04:29:37 62° E 04:35:41 10° SSE
Cosmos 2297 Rocket 3.9 04:27:30 15° W 04:29:37 19° NW 04:33:30 10° NNW
Cosmos 1763 Rocket 4.4 04:25:41 10° N 04:30:46 50° ENE 04:35:45 10° SE
ATLAS 2AS CENTAUR R/B 4.2 04:26:43 10° WNW 04:31:12 19° W 04:31:12 19° W
CZ-2D R/B 3.3 04:28:35 10° N 04:32:39 85° WNW 04:34:36 31° SSW
NOSS 3-4 (A) 3.9 04:26:11 10° NNW 04:33:21 89° NE 04:40:59 10° SSE
NOSS 3-4 (C) 3.9 04:26:17 10° NNW 04:33:27 88° ENE 04:41:05 10° SSE
Okean O Rocket 3.7 04:30:17 10° NE 04:33:46 23° E 04:37:13 10° SSE
Cosmos 1814 Rocket 4.2 04:29:21 10° NNW 04:34:42 75° ENE 04:40:02 10° SSE
Sich 1 3.8 04:34:32 31° WSW 04:35:28 34° W 04:39:29 10° NNW
Cosmos 1633 Rocket 3.6 04:34:28 34° WSW 04:35:37 41° W 04:39:46 10° N
Cosmos 1470 Rocket 3.4 04:33:52 27° S 04:36:11 89° W 04:40:31 10° N
SL-16 R/B 3.2 04:43:24 23° SW 04:46:15 34° W 04:51:48 10° NW
Cosmos 332 Rocket 3.7 04:43:55 10° NNW 04:48:47 79° WSW 04:53:38 10° SSE
UNKNOWN OBJECT B 3.5 04:47:24 10° N 04:51:08 39° WNW 04:52:49 25° WSW
MOS 1 Rocket 3.7 04:46:12 10° N 04:51:21 61° WNW 04:55:15 19° SSW
ATLAS 5 CENTAUR R/B 2.0 04:49:34 19° SSW 04:52:44 65° ESE 04:57:37 10° NE
Cosmos 2237 Rocket 4.1 04:51:09 10° WNW 04:52:19 12° W 04:52:19 12° W
Abrixas rocket 4.0 04:51:59 16° S 04:53:33 23° SE 04:56:13 10° E
Cosmos 220 Rocket 4.2 04:52:17 24° SW 04:54:51 60° WNW 04:59:16 10° N
SL-16 R/B 2.9 04:50:25 10° NW 04:55:23 32° WSW 04:59:21 15° SSW
Cosmos 1354 Rocket 4.2 04:53:07 13° S 04:57:53 74° ESE 05:03:09 10° NNE
SL-24 R/B 3.6 04:54:54 10° N 04:58:39 67° WNW 05:01:08 19° SSW
CZ-4B R/B 4.3 04:54:41 10° NNE 04:59:43 41° E 05:04:47 10° S
Cosmos 1315 Rocket 3.7 04:57:00 10° S 05:00:56 50° E 05:04:49 10° NNE
Resurs 1-4 Rocket 3.6 04:58:08 10° NNW 05:02:01 21° WNW 05:04:44 14° WSW
ARIANE 5 R/B 4.1 05:02:41 10° NNW 05:06:12 19° WNW 05:08:48 13° WSW
PSLV R/B 4.5 05:02:57 10° NNE 05:07:01 46° E 05:11:03 10° S
ADEOS II 2.4 05:03:32 10° NNE 05:08:47 69° ESE 05:14:00 10° S
ATLAS 3B CENTAUR R/B 3.3 04:59:51 10° W 05:11:12 38° SSW 05:15:53 10° SE
Meteor 2-3 Rocket 3.8 05:08:20 10° S 05:14:00 88° E 05:19:46 10° N
BREEZE M DEB (TANK) 2.2 05:15:57 16° WSW 05:18:02 56° NW 05:20:12 10° NE
Cosmos 1943 3.7 05:16:10 10° NNW 05:21:46 64° ENE 05:27:21 10° SSE
IRS-1C Rocket 4.4 05:17:15 10° NNE 05:22:32 70° ESE 05:27:47 10° S
CZ-2D R/B 4.1 05:21:13 10° NW 05:23:31 13° WNW 05:25:50 10° W
Cosmos 1867 3.6 05:20:41 11° SW 05:25:54 74° WNW 05:31:23 10° NNE
Cosmos 2263 Rocket 2.2 05:20:50 10° SSW 05:26:23 84° WNW 05:31:59 10° NNE
Meteosat 1 Rocket2 3.8 05:23:52 13° WSW 05:27:05 29° S 05:30:19 10° ESE
Cosmos 1892 2.9 05:25:16 10° SSW 05:28:57 51° W 05:32:41 10° N
Cosmos 1933 4.3 05:25:53 10° NNW 05:29:27 29° W 05:33:00 10° SSW
USA 161 3.0 05:30:02 11° W 05:30:02 11° W 05:30:20 10° W
OAO 3 Rocket 3.3 05:25:10 11° WSW 05:29:55 70° SSE 05:34:49 10° E
CZ-3 R/B 3.7 04:55:27 10° W 05:34:13 60° SSW 05:42:45 10° ESE
Cosmos 968 Rocket 4.5 05:29:47 10° S 05:34:40 47° ESE 05:39:38 10° NNE
Meteor 2-10 Rocket 4.0 05:31:11 10° NNW 05:35:48 39° W 05:40:30 10° SSW
GPS 2-04 Rocket1 4.5 05:36:29 10° WSW 05:39:01 16° SSW 05:41:37 10° S
PAYLOAD B 4.3 05:36:03 10° N 05:41:31 70° WNW 05:46:58 10° SSW
Cosmos 1400 Rocket 4.2 05:38:51 10° SW 05:41:55 22° WNW 05:45:02 10° NNW
Cosmos 1606 4.4 05:38:43 10° N 05:42:24 39° E 05:46:05 10° SSE
Cosmos 841 Rocket 4.0 05:38:12 10° NNW 05:43:07 40° WSW 05:48:00 10° S
